CW0352 Weather Reports


Display with metric or nautical units.
time (UTC)temp
F
wind
direction
speed
MPH
gust
MPH
rain 1hr
in
rain 24hr
in
rain mn
in
humidity
%
barometer
mb
20260507122526 39 0 5.0 13.0 0.00 0.06 0.00 83 1016.0
20260507122022 39 0 6.0 14.0 0.00 0.06 0.00 83 1016.0
20260507121514 39 0 6.0 14.0 0.00 0.06 0.00 83 1016.1
20260507121011 39 0 6.0 12.0 0.00 0.07 0.00 83 1016.1
20260507120935 39 0 6.0 12.0 0.00 0.07 0.00 84 1016.1
20260507120555 39 0 6.0 12.0 0.00 0.07 0.00 84 1016.1
20260507115954 39 0 5.0 10.0 0.00 0.07 0.00 84 1016.1
20260507115440 38 0 5.0 10.0 0.00 0.08 0.00 84 1016.0
20260507114935 38 0 6.0 13.0 0.00 0.08 0.00 84 1016.1
20260507114420 38 0 5.0 12.0 0.00 0.08 0.00 84 1016.3
20260507114409 38 0 6.0 11.0 0.00 0.09 0.00 85 1016.3
20260507114022 38 0 6.0 11.0 0.00 0.09 0.00 85 1016.3
20260507113406 38 0 6.0 12.0 0.00 0.09 0.00 85 1016.4
20260507112904 38 0 5.0 12.0 0.00 0.09 0.00 85 1016.4
20260507112336 38 0 6.0 13.0 0.00 0.10 0.00 86 1016.4
20260507111811 38 0 5.0 13.0 0.00 0.10 0.00 86 1016.4
20260507111305 38 0 5.0 10.0 0.00 0.11 0.00 86 1016.4
20260507110801 38 0 5.0 10.0 0.00 0.11 0.00 86 1016.4
20260507110523 38 0 5.0 10.0 0.00 0.12 0.00 86 1016.5
20260507110405 38 0 5.0 10.0 0.00 0.12 0.00 86 1016.5
20260507105734 38 0 5.0 15.0 0.00 0.12 0.00 86 1016.5
20260507105230 38 0 5.0 15.0 0.00 0.13 0.00 87 1016.6
20260507104923 38 0 5.0 12.0 0.00 0.13 0.00 87 1016.8
20260507104807 38 0 5.0 12.0 0.00 0.13 0.00 87 1016.8
20260507104407 38 0 6.0 12.0 0.00 0.14 0.00 87 1016.9
20260507104242 38 0 6.0 12.0 0.00 0.14 0.00 87 1016.9
20260507103639 38 0 6.0 12.0 0.00 0.15 0.00 87 1017.0
20260507103128 38 0 6.0 11.0 0.00 0.15 0.00 87 1017.0
20260507102844 38 0 6.0 14.0 0.00 0.16 0.00 87 1017.0
20260507102720 38 0 6.0 14.0 0.00 0.16 0.00 87 1017.0
20260507102052 38 0 6.0 14.0 0.00 0.16 0.00 87 1017.1
20260507101527 38 0 6.0 13.0 0.00 0.16 0.00 87 1017.2
20260507101232 38 0 6.0 12.0 0.00 0.16 0.00 87 1017.4
20260507101114 38 0 6.0 12.0 0.00 0.16 0.00 87 1017.4
20260507100459 38 0 6.0 11.0 0.00 0.16 0.00 87 1017.4
20260507100005 38 0 6.0 13.0 0.00 0.16 0.00 86 1017.4
20260507095459 38 0 6.0 13.0 0.00 0.17 0.00 86 1017.5
20260507095000 38 0 6.0 13.0 0.00 0.17 0.00 86 1017.5
20260507094446 38 0 6.0 13.0 0.00 0.17 0.00 86 1017.5
20260507093943 38 0 6.0 13.0 0.00 0.18 0.00 86 1017.6
20260507093442 38 0 7.0 12.0 0.00 0.18 0.00 86 1017.5
20260507092931 38 0 6.0 13.0 0.00 0.18 0.00 86 1017.6
20260507092412 38 0 5.0 13.0 0.00 0.18 0.00 87 1017.7
20260507091915 38 0 5.0 12.0 0.00 0.19 0.00 87 1017.8
20260507091413 38 0 5.0 11.0 0.00 0.19 0.00 87 1017.8
20260507090914 38 0 4.0 11.0 0.00 0.19 0.00 87 1017.9
20260507090357 38 0 5.0 11.0 0.00 0.19 0.00 87 1018.0
20260507085836 37 0 5.0 11.0 0.00 0.19 0.00 88 1018.0
20260507085338 37 0 5.0 9.0 0.00 0.19 0.00 88 1018.1
20260507084816 37 0 5.0 9.0 0.00 0.19 0.00 88 1018.2
20260507084304 37 0 5.0 11.0 0.00 0.19 0.00 88 1018.1
20260507084106 37 0 5.0 11.0 0.00 0.19 0.00 88 1018.2
20260507084035 37 0 5.0 11.0 0.00 0.19 0.00 88 1018.2
20260507083213 37 0 5.0 11.0 0.00 0.19 0.00 89 1018.3
20260507082655 37 0 5.0 11.0 0.00 0.19 0.00 89 1018.4
20260507082532 37 0 5.0 11.0 0.00 0.19 0.00 89 1018.6
20260507082444 37 0 5.0 11.0 0.00 0.19 0.00 89 1018.6
20260507082020 37 0 5.0 11.0 0.00 0.19 0.00 89 1018.6
20260507081948 37 0 5.0 11.0 0.00 0.19 0.00 89 1018.6
20260507081130 37 0 5.0 12.0 0.00 0.19 0.00 89 1018.7
20260507080634 37 0 4.0 12.0 0.00 0.19 0.00 89 1018.8
20260507080127 37 0 4.0 9.0 0.00 0.19 0.00 89 1018.8
20260507075602 37 0 3.0 9.0 0.00 0.19 0.00 89 1018.9
20260507075034 37 0 4.0 8.0 0.00 0.19 0.00 90 1018.9
20260507074528 37 0 4.0 8.0 0.00 0.19 0.00 90 1019.0
20260507074002 37 0 3.0 8.0 0.00 0.19 0.00 90 1019.0
20260507073721 37 0 4.0 8.0 0.00 0.20 0.00 89 1019.2
20260507073553 37 0 4.0 8.0 0.00 0.20 0.00 89 1019.2
20260507073428 37 0 4.0 10.0 0.00 0.20 0.00 89 1019.3
20260507073354 37 0 4.0 10.0 0.00 0.20 0.00 89 1019.3
20260507072347 37 0 3.0 10.0 0.00 0.20 0.00 89 1019.3
20260507071823 37 0 3.0 8.0 0.00 0.20 0.00 89 1019.4
20260507071322 37 0 3.0 8.0 0.00 0.20 0.00 90 1019.5
20260507070824 37 0 3.0 9.0 0.00 0.20 0.00 90 1019.7
20260507070321 37 0 3.0 9.0 0.00 0.20 0.00 90 1019.5
20260507065816 37 0 4.0 11.0 0.00 0.20 0.00 89 1019.7
20260507065314 37 0 4.0 6.0 0.00 0.21 0.00 89 1019.8
20260507064849 37 0 3.0 6.0 0.00 0.21 0.00 89 1019.9
20260507064807 37 0 3.0 6.0 0.00 0.21 0.00 89 1019.8
20260507064536 37 0 3.0 6.0 0.00 0.21 0.00 89 1019.9
20260507063737 38 0 3.0 6.0 0.00 0.21 0.00 89 1020.0
20260507063223 38 0 3.0 8.0 0.00 0.21 0.00 89 1019.9
20260507062721 38 0 4.0 9.0 0.00 0.22 0.00 89 1020.1
20260507062208 38 0 4.0 11.0 0.00 0.22 0.00 90 1020.3
20260507061710 38 0 3.0 11.0 0.00 0.22 0.00 90 1020.3
20260507061412 38 0 3.0 6.0 0.00 0.22 0.00 90 1020.4
20260507061250 38 0 3.0 6.0 0.00 0.22 0.00 90 1020.4
20260507060640 38 0 3.0 9.0 0.00 0.22 0.00 90 1020.4
20260507060115 38 0 4.0 9.0 0.00 0.23 0.00 90 1020.3
20260507055546 38 0 4.0 9.0 0.00 0.23 0.00 90 1020.4
20260507055020 38 0 3.0 8.0 0.00 0.23 0.00 90 1020.4
20260507054516 38 0 3.0 6.0 0.00 0.24 0.00 90 1020.4
20260507054018 38 0 3.0 6.0 0.00 0.24 0.00 90 1020.5
20260507053514 38 0 2.0 6.0 0.00 0.25 0.00 89 1020.5
20260507052945 38 0 2.0 6.0 0.00 0.26 0.00 89 1020.4
20260507052419 38 0 2.0 8.0 0.00 0.26 0.00 89 1020.3
20260507051916 38 0 3.0 8.0 0.00 0.26 0.00 89 1020.3
20260507051349 38 0 3.0 6.0 0.00 0.26 0.00 89 1020.4
20260507050843 38 0 2.0 6.0 0.00 0.27 0.00 89 1020.4
20260507050347 38 0 2.0 6.0 0.00 0.27 0.00 89 1020.6
20260507045835 38 0 3.0 6.0 0.00 0.27 0.27 89 1020.6
20260507045335 38 0 2.0 6.0 0.00 0.28 0.27 89 1020.8
20260507045138 38 0 3.0 8.0 0.00 0.29 0.27 88 1020.8
20260507045102 38 0 3.0 8.0 0.00 0.29 0.27 88 1020.8
20260507044306 38 0 3.0 9.0 0.00 0.29 0.27 88 1021.0
20260507043738 38 0 3.0 9.0 0.00 0.29 0.27 88 1020.9
20260507043235 39 0 2.0 9.0 0.00 0.30 0.27 88 1021.0
20260507042709 39 0 2.0 6.0 0.00 0.30 0.27 88 1021.1
20260507042157 39 0 2.0 6.0 0.00 0.30 0.27 88 1021.0
20260507041647 39 0 2.0 6.0 0.00 0.30 0.27 87 1021.1
20260507041122 39 0 2.0 5.0 0.00 0.31 0.27 87 1021.1
20260507040618 40 0 2.0 5.0 0.00 0.31 0.27 87 1021.1
20260507040117 40 0 2.0 5.0 0.00 0.31 0.27 87 1021.1
20260507035551 40 0 2.0 5.0 0.00 0.32 0.27 87 1021.1
20260507035045 40 0 2.0 5.0 0.00 0.32 0.27 87 1021.2
20260507034518 40 0 2.0 5.0 0.00 0.32 0.27 86 1021.1
20260507034239 40 0 3.0 5.0 0.00 0.32 0.27 86 1021.1
20260507034119 40 0 3.0 5.0 0.00 0.32 0.27 86 1021.1
20260507033449 40 0 2.0 8.0 0.00 0.33 0.27 86 1021.1
20260507032948 40 0 2.0 5.0 0.00 0.33 0.27 86 1021.1
20260507032436 40 0 2.0 4.0 0.00 0.34 0.27 86 1021.0
20260507031930 41 0 2.0 6.0 0.00 0.35 0.27 85 1021.1
20260507031634 41 0 2.0 6.0 0.00 0.36 0.27 85 1021.1
20260507031509 41 0 2.0 6.0 0.00 0.36 0.27 85 1021.1
20260507031205 41 0 3.0 9.0 0.00 0.37 0.27 85 1021.1
20260507030900 41 0 2.0 9.0 0.00 0.36 0.27 85 1021.1
20260507030640 41 0 3.0 9.0 0.00 0.37 0.27 85 1021.1
20260507025851 42 0 2.0 6.0 0.00 0.37 0.27 84 1021.1
20260507025350 42 0 2.0 4.0 0.00 0.37 0.27 84 1021.0
20260507024845 42 0 2.0 5.0 0.00 0.37 0.27 84 1021.0
20260507024341 43 0 2.0 5.0 0.00 0.37 0.27 83 1021.1
20260507024057 43 0 2.0 4.0 0.00 0.38 0.27 83 1020.9
20260507023941 43 0 2.0 4.0 0.00 0.38 0.27 83 1020.9
20260507023312 43 0 2.0 4.0 0.00 0.38 0.27 83 1020.9
20260507022745 44 0 2.0 4.0 0.00 0.39 0.27 83 1020.6
20260507022241 44 0 2.0 4.0 0.00 0.39 0.27 82 1020.5
20260507021720 44 0 2.0 4.0 0.00 0.39 0.27 82 1020.6
20260507021216 44 0 1.0 4.0 0.00 0.39 0.27 82 1020.6
20260507020657 45 0 1.0 2.0 0.00 0.40 0.27 81 1020.6
20260507020147 45 0 1.0 3.0 0.00 0.40 0.27 81 1020.6
20260507015635 45 0 2.0 3.0 0.00 0.40 0.27 81 1020.5
20260507015139 45 0 2.0 4.0 0.00 0.41 0.27 80 1020.6
20260507014615 46 0 2.0 5.0 0.00 0.41 0.27 80 1020.5
20260507014113 46 0 2.0 5.0 0.00 0.42 0.27 79 1020.8
20260507013547 46 0 3.0 8.0 0.00 0.42 0.27 79 1020.6
20260507013045 46 0 3.0 8.0 0.00 0.42 0.27 78 1020.6
20260507012543 46 0 3.0 6.0 0.00 0.42 0.27 78 1020.6
20260507012024 46 0 3.0 10.0 0.00 0.42 0.27 77 1020.6
20260507011519 46 0 4.0 10.0 0.00 0.42 0.27 76 1020.6
20260507010948 46 0 4.0 8.0 0.00 0.43 0.27 76 1020.8
20260507010432 46 0 4.0 8.0 0.00 0.43 0.27 75 1020.8
20260507005930 46 0 4.0 8.0 0.00 0.43 0.27 75 1020.6
20260507005427 47 0 4.0 9.0 0.00 0.43 0.27 75 1020.4
20260507004901 47 0 4.0 12.0 0.00 0.44 0.27 74 1020.3
20260507004342 47 0 5.0 12.0 0.00 0.44 0.27 75 1020.4
20260507003819 47 0 5.0 9.0 0.00 0.44 0.27 76 1020.3
20260507003300 47 0 5.0 9.0 0.00 0.44 0.27 77 1020.3
20260507002737 47 0 4.0 9.0 0.00 0.44 0.27 78 1020.6
20260507002228 46 0 5.0 9.0 0.00 0.44 0.27 80 1020.8
20260507001725 46 0 4.0 8.0 0.00 0.44 0.27 80 1020.9
20260507001224 46 0 3.0 8.0 0.00 0.45 0.27 81 1020.9
20260507000740 46 0 4.0 9.0 0.00 0.45 0.27 81 1020.9
20260507000223 46 0 5.0 10.0 0.00 0.45 0.27 81 1020.6
20260506235725 46 0 5.0 10.0 0.00 0.45 0.27 81 1020.8
20260506235220 46 0 4.0 9.0 0.00 0.45 0.27 82 1020.6
20260506234715 46 0 5.0 10.0 0.00 0.45 0.27 82 1020.9
20260506234412 46 0 5.0 10.0 0.00 0.45 0.27 81 1020.9
20260506234256 46 0 5.0 10.0 0.00 0.45 0.27 81 1020.9
20260506233918 46 0 5.0 9.0 0.00 0.45 0.27 78 1020.9
20260506233751 46 0 5.0 9.0 0.00 0.45 0.27 78 1020.9
20260506233123 46 0 5.0 9.0 0.00 0.45 0.27 77 1020.9
20260506232826 46 0 5.0 11.0 0.00 0.45 0.27 76 1020.9
20260506232708 46 0 5.0 11.0 0.00 0.45 0.27 76 1020.9
20260506232102 46 0 5.0 10.0 0.00 0.45 0.27 77 1020.9
20260506231602 46 0 6.0 10.0 0.00 0.45 0.27 77 1020.9
20260506231058 46 0 6.0 11.0 0.00 0.45 0.27 77 1020.9
20260506230836 47 0 5.0 11.0 0.00 0.45 0.27 77 1020.9
20260506230830 47 0 5.0 11.0 0.00 0.45 0.27 77 1020.9
20260506230425 47 0 5.0 11.0 0.00 0.45 0.27 77 1020.9
20260506225436 47 0 5.0 11.0 0.00 0.45 0.27 77 1020.9
20260506224910 47 0 5.0 11.0 0.00 0.45 0.27 77 1020.9
20260506224402 47 0 5.0 10.0 0.00 0.45 0.27 77 1020.9
20260506223835 47 0 4.0 10.0 0.00 0.45 0.27 75 1021.0
20260506223328 47 0 4.0 9.0 0.00 0.45 0.27 74 1020.9
20260506222758 47 0 5.0 10.0 0.00 0.45 0.27 73 1020.9
20260506222234 47 0 6.0 10.0 0.00 0.45 0.27 73 1020.8
20260506221737 48 0 6.0 13.0 0.00 0.45 0.27 72 1020.9
20260506221232 48 0 6.0 13.0 0.00 0.45 0.27 72 1020.9
20260506220728 49 0 5.0 12.0 0.00 0.45 0.27 70 1021.0
20260506220202 50 0 4.0 10.0 0.00 0.45 0.27 68 1021.0
20260506215917 50 0 4.0 10.0 0.00 0.45 0.27 67 1021.0
20260506215802 50 0 4.0 10.0 0.00 0.45 0.27 67 1021.0
20260506215133 51 0 4.0 10.0 0.00 0.45 0.27 65 1021.0
20260506214617 51 0 4.0 10.0 0.00 0.45 0.27 64 1021.1
20260506214339 51 0 3.0 8.0 0.00 0.46 0.27 63 1021.2
20260506214206 51 0 3.0 8.0 0.00 0.46 0.27 63 1021.2
20260506213539 51 0 3.0 9.0 0.00 0.46 0.27 65 1021.1
20260506213007 51 0 4.0 9.0 0.00 0.46 0.27 65 1021.2
20260506212443 51 0 3.0 9.0 0.00 0.46 0.27 67 1021.3
20260506211941 51 0 3.0 6.0 0.00 0.46 0.27 69 1021.4
20260506211437 51 0 3.0 11.0 0.00 0.46 0.27 68 1021.5
20260506210914 50 0 4.0 11.0 0.00 0.46 0.27 70 1021.5
20260506210406 50 0 4.0 10.0 0.00 0.46 0.27 67 1021.6
20260506205844 51 0 3.0 9.0 0.00 0.46 0.27 69 1021.6
20260506205341 50 0 3.0 8.0 0.00 0.46 0.27 70 1021.5
20260506204817 49 0 3.0 8.0 0.00 0.46 0.27 71 1021.6
20260506204541 49 0 3.0 8.0 0.00 0.46 0.27 73 1021.6
20260506204415 49 0 3.0 8.0 0.00 0.46 0.27 73 1021.6
20260506203805 49 0 3.0 8.0 0.00 0.46 0.27 71 1021.6
20260506203240 49 0 3.0 5.0 0.00 0.46 0.27 72 1021.7
20260506202711 49 0 3.0 4.0 0.00 0.46 0.27 73 1021.7
20260506202529 49 0 3.0 8.0 0.00 0.46 0.27 76 1021.9
20260506201704 48 0 3.0 8.0 0.00 0.46 0.27 78 1021.7
20260506201146 47 0 3.0 8.0 0.00 0.46 0.27 80 1021.7
20260506200844 47 0 3.0 8.0 0.00 0.46 0.27 84 1021.7
20260506200725 47 0 3.0 8.0 0.00 0.46 0.27 84 1021.7
20260506200107 46 0 2.0 6.0 0.00 0.46 0.27 85 1021.7
20260506195603 45 0 2.0 5.0 0.00 0.46 0.27 85 1021.9
20260506195101 44 0 3.0 5.0 0.00 0.46 0.27 85 1022.0
20260506194556 44 0 3.0 5.0 0.00 0.46 0.27 84 1022.1
20260506194031 44 0 3.0 6.0 0.00 0.46 0.27 85 1022.1
20260506193510 44 0 3.0 4.0 0.00 0.46 0.27 86 1022.1
20260506192958 44 0 3.0 5.0 0.00 0.46 0.27 85 1022.1
20260506192456 44 0 4.0 6.0 0.00 0.46 0.27 84 1022.1
20260506191952 44 0 3.0 6.0 0.00 0.46 0.27 85 1022.0
20260506191425 45 0 2.0 6.0 0.00 0.46 0.27 84 1022.1
20260506190920 45 0 2.0 6.0 0.00 0.46 0.27 84 1022.1
20260506190407 45 0 2.0 6.0 0.00 0.46 0.27 83 1022.1
20260506190114 45 0 1.0 5.0 0.00 0.46 0.27 81 1022.2
20260506185955 45 0 1.0 5.0 0.00 0.46 0.27 81 1022.2
20260506185324 45 0 0.0 1.0 0.00 0.46 0.27 82 1022.2
20260506184759 45 0 0.0 1.0 0.00 0.46 0.27 85 1022.2
20260506184253 45 0 0.0 1.0 0.00 0.46 0.27 85 1022.2
20260506184006 44 0 0.0 2.0 0.00 0.46 0.27 85 1022.2
20260506183842 44 0 0.0 2.0 0.00 0.46 0.27 85 1022.2
20260506183212 44 0 1.0 2.0 0.00 0.46 0.27 84 1022.3
20260506182932 44 0 1.0 2.0 0.00 0.46 0.27 84 1022.3
20260506182816 44 0 1.0 2.0 0.00 0.46 0.27 84 1022.3
20260506182146 44 0 1.0 3.0 0.00 0.46 0.27 84 1022.3
20260506181620 44 0 2.0 4.0 0.00 0.46 0.27 84 1022.4
20260506181426 44 0 1.0 4.0 0.00 0.46 0.27 85 1022.4
20260506180606 44 0 1.0 2.0 0.00 0.46 0.27 85 1022.5
20260506180055 44 0 1.0 3.0 0.00 0.46 0.27 84 1022.4
20260506175540 44 0 1.0 3.0 0.00 0.46 0.27 85 1022.5
20260506175013 44 0 0.0 3.0 0.00 0.46 0.27 87 1022.5
20260506174452 44 0 0.0 2.0 0.00 0.46 0.27 87 1022.5
20260506173953 44 0 1.0 2.0 0.00 0.46 0.27 88 1022.6
20260506173437 44 0 1.0 4.0 0.00 0.46 0.27 87 1022.7
20260506172929 44 0 1.0 4.0 0.00 0.46 0.27 87 1022.6
20260506172429 43 0 1.0 4.0 0.00 0.46 0.27 88 1022.5
20260506172147 43 0 2.0 4.0 0.00 0.46 0.27 87 1022.6
20260506172031 43 0 2.0 4.0 0.00 0.46 0.27 87 1022.6
20260506171425 43 0 1.0 4.0 0.00 0.46 0.27 89 1022.5
20260506170905 43 0 2.0 4.0 0.00 0.46 0.27 89 1022.5
20260506170406 42 0 2.0 5.0 0.00 0.46 0.27 89 1022.6
20260506165845 42 0 2.0 5.0 0.00 0.46 0.27 90 1022.6
20260506165326 42 0 2.0 6.0 0.00 0.46 0.27 90 1022.6
20260506165034 42 0 2.0 6.0 0.00 0.46 0.27 90 1022.6
20260506164943 42 0 2.0 5.0 0.00 0.46 0.27 91 1022.6
20260506164911 42 0 2.0 6.0 0.00 0.46 0.27 90 1022.6
20260506164409 42 0 2.0 5.0 0.00 0.46 0.27 91 1022.6
20260506163758 42 0 3.0 5.0 0.00 0.46 0.27 90 1022.6
20260506163259 42 0 2.0 6.0 0.00 0.46 0.27 91 1022.4
20260506162757 42 0 2.0 6.0 0.00 0.46 0.27 91 1022.4
20260506162258 42 0 2.0 5.0 0.00 0.46 0.27 91 1022.3
20260506161733 42 0 1.0 4.0 0.00 0.46 0.27 92 1022.2
20260506161210 42 0 1.0 3.0 0.00 0.46 0.27 92 1022.1
20260506160700 42 0 1.0 4.0 0.00 0.46 0.27 93 1022.1
20260506160138 42 0 1.0 4.0 0.00 0.46 0.27 93 1022.0
20260506155601 42 0 1.0 3.0 0.00 0.46 0.27 93 1021.9
20260506155036 42 0 1.0 3.0 0.00 0.46 0.27 93 1021.7
20260506154537 42 0 1.0 4.0 0.00 0.46 0.27 93 1021.6
20260506154301 41 0 1.0 4.0 0.00 0.46 0.27 93 1021.6
20260506154137 41 0 1.0 4.0 0.00 0.46 0.27 93 1021.6
20260506153534 41 0 3.0 6.0 0.00 0.46 0.27 93 1021.5
20260506153512 41 0 2.0 5.0 0.00 0.46 0.27 94 1021.6
20260506153420 41 0 3.0 6.0 0.00 0.46 0.27 93 1021.5
20260506152424 40 0 2.0 6.0 0.00 0.46 0.27 94 1021.5
20260506151903 40 0 2.0 5.0 0.01 0.46 0.27 94 1021.5
20260506151337 40 0 2.0 6.0 0.01 0.46 0.27 94 1021.6
20260506150819 39 0 2.0 5.0 0.01 0.46 0.27 94 1021.5
20260506150245 39 0 2.0 6.0 0.01 0.46 0.27 93 1021.5
20260506145740 39 0 2.0 6.0 0.01 0.46 0.27 94 1021.5
20260506145216 38 0 2.0 6.0 0.01 0.46 0.27 94 1021.5
20260506144650 38 0 1.0 4.0 0.01 0.46 0.27 94 1021.6
20260506144150 38 0 1.0 3.0 0.02 0.46 0.27 94 1021.6
20260506143644 38 0 1.0 3.0 0.02 0.46 0.27 93 1021.6
20260506143359 37 0 0.0 1.0 0.02 0.46 0.27 93 1021.6
20260506143246 37 0 0.0 1.0 0.02 0.46 0.27 93 1021.6
20260506142614 37 0 0.0 1.0 0.03 0.46 0.27 94 1021.7
20260506142048 37 0 0.0 1.0 0.02 0.45 0.27 94 1021.7
20260506141813 37 0 0.0 1.0 0.03 0.45 0.26 94 1021.7
20260506141651 37 0 0.0 1.0 0.03 0.45 0.26 94 1021.7
20260506141024 37 0 0.0 1.0 0.03 0.45 0.26 94 1021.9
20260506140454 37 0 0.0 2.0 0.03 0.45 0.26 93 1021.9
20260506135927 37 0 0.0 2.0 0.03 0.45 0.26 94 1021.7
20260506135402 37 0 0.0 0.0 0.03 0.45 0.26 94 1021.6
20260506134835 37 0 0.0 0.0 0.03 0.45 0.26 93 1021.6
20260506134308 36 0 0.0 0.0 0.02 0.44 0.25 93 1021.5
20260506133805 36 0 0.0 0.0 0.03 0.44 0.25 94 1021.5
20260506133303 36 0 0.0 0.0 0.03 0.44 0.25 94 1021.6
20260506132759 36 0 0.0 0.0 0.02 0.43 0.24 94 1021.5
20260506132255 36 0 0.0 1.0 0.03 0.43 0.24 93 1021.5
20260506131745 36 0 0.0 0.0 0.03 0.43 0.24 93 1021.5
20260506131248 36 0 0.0 1.0 0.02 0.42 0.23 93 1021.4
20260506130715 36 0 0.0 1.0 0.03 0.42 0.23 93 1021.3
20260506130213 36 0 0.0 1.0 0.03 0.42 0.23 93 1021.2
20260506125708 36 0 0.0 1.0 0.03 0.42 0.23 93 1021.2
20260506125638 36 0 0.0 1.0 0.04 0.42 0.23 93 1021.2
20260506125247 36 0 0.0 1.0 0.04 0.42 0.23 93 1021.2
20260506124618 36 0 0.0 2.0 0.04 0.42 0.23 93 1021.0
20260506124113 36 0 0.0 2.0 0.04 0.41 0.22 93 1021.0
20260506123821 35 0 0.0 2.0 0.04 0.41 0.22 93 1021.0
20260506123651 35 0 0.0 2.0 0.04 0.41 0.22 93 1021.0
20260506123046 35 0 0.0 2.0 0.04 0.41 0.22 93 1020.8